Tracking 30995 objects as of 5-Jul-2025
HD Live streaming from Space Station
objects crossing your sky now

STARLINK-3608

Track STARLINK-3608 now!
10-day predictions
STARLINK-3608 is classified as:


NORAD ID: 51776
Int'l Code: 2022-017J
Perigee: 546.0 km
Apogee: 547.9 km
Inclination: 53.2 °
Period: 95.4 minutes
Semi major axis: 6917 km
RCS: Unknown
Launch date: February 25, 2022
Source: United States (US)
Launch site: AIR FORCE WESTERN TEST RANGE (AFWTR)
Your satellite tracking list
Your tracking list is empty




NASA's NSSDC Master Catalog

Two Line Element Set (TLE):
1 51776U 22017J   25186.78090164  .00001832  00000-0  13320-3 0  9991
2 51776  53.2187   7.5366 0001383  85.9330 274.1821 15.08830232186781
Source of the keplerian elements: AFSPC